カタログに戻る

BREEZE-M DEB

LostHEO
NORAD 39331·DEBRIS·🇷🇺 Russia

打ち上げ Mar 14, 2008 から Baikonur Cosmodrome

Loading…

次のパス (今後24時間)

TLE

古いSource: Space-Track

元期: Oct 22, 2015, 00:29 UTC

1 39331U 08011DJ  15295.02076716  .00000025  00000-0  83052-3 0  9998
2 39331  48.7847 218.8898 6477118 182.6866 170.6102  3.16317968 40920

AllMySatでBREEZE-M DEBをリアルタイム追跡

Download on the App Store